TimeAST,TemperatureF,Dew PointF,Humidity,Sea Level PressureIn,VisibilityMPH,Wind Direction,Wind SpeedMPH,Gust SpeedMPH,PrecipitationIn,Events,Conditions,WindDirDegrees,DateUTC
12:00 AM,82.4,73.4,74,29.83,6.2,East,6.9,-,N/A,,Scattered Clouds,80,2013-09-14 04:00:00
1:00 AM,82.4,75.2,79,29.83,6.2,East,9.2,-,N/A,,Scattered Clouds,100,2013-09-14 05:00:00
2:00 AM,82.4,73.4,74,29.80,6.2,East,9.2,-,N/A,Rain,Light Rain Showers,80,2013-09-14 06:00:00
3:00 AM,82.4,75.2,79,29.80,6.2,East,8.1,-,N/A,,Scattered Clouds,90,2013-09-14 07:00:00
4:00 AM,82.4,75.2,79,29.80,6.2,East,8.1,-,N/A,,Partly Cloudy,90,2013-09-14 08:00:00
5:00 AM,82,74,72,29.83,31,East,3.5,,,,Partly Cloudy,100,2013-09-14 09:00:00
5:00 AM,82.4,75.2,79,29.83,6.2,East,3.5,-,N/A,,Partly Cloudy,100,2013-09-14 09:00:00
6:00 AM,80.6,75.2,84,29.83,6.2,ESE,3.5,-,N/A,,Partly Cloudy,120,2013-09-14 10:00:00
7:00 AM,82.4,75.2,79,29.86,6.2,ESE,4.6,-,N/A,,Scattered Clouds,110,2013-09-14 11:00:00
8:00 AM,85,75,65,29.89,31,SE,8.1,,,,Partly Cloudy,130,2013-09-14 12:00:00
8:00 AM,84.2,75.2,74,29.89,6.2,SE,8.1,-,N/A,,Scattered Clouds,130,2013-09-14 12:00:00
9:00 AM,86.0,75.2,70,29.89,6.2,SE,8.1,-,N/A,,Scattered Clouds,130,2013-09-14 13:00:00
10:00 AM,86.0,75.2,70,29.89,6.2,SE,8.1,-,N/A,,Scattered Clouds,140,2013-09-14 14:00:00
11:00 AM,87,74,58,29.92,34,SE,6.9,,,,Scattered Clouds,140,2013-09-14 15:00:00
11:00 AM,86.0,73.4,66,29.92,6.2,SE,6.9,-,N/A,,Partly Cloudy,140,2013-09-14 15:00:00
12:00 PM,87.8,75.2,66,29.89,6.2,SE,5.8,-,N/A,,Partly Cloudy,140,2013-09-14 16:00:00
1:00 PM,87.8,75.2,66,29.89,6.2,SSE,6.9,-,N/A,,Partly Cloudy,150,2013-09-14 17:00:00
2:00 PM,88,75,58,29.88,37,SE,6.9,,,,,130,2013-09-14 18:00:00
2:00 PM,87.8,75.2,66,29.86,6.2,SE,6.9,-,N/A,,Partly Cloudy,130,2013-09-14 18:00:00
3:00 PM,87.8,75.2,66,29.86,6.2,SE,5.8,-,N/A,,Partly Cloudy,140,2013-09-14 19:00:00
4:00 PM,87.8,75.2,66,29.89,6.2,SE,6.9,-,N/A,,Partly Cloudy,140,2013-09-14 20:00:00
5:00 PM,86,76,66,29.90,37,SE,9.2,,,,Scattered Clouds,140,2013-09-14 21:00:00
5:00 PM,86.0,75.2,70,29.89,6.2,SE,9.2,-,N/A,,Partly Cloudy,140,2013-09-14 21:00:00
6:00 PM,84.2,75.2,74,29.92,6.2,SE,9.2,-,N/A,,Partly Cloudy,130,2013-09-14 22:00:00
7:00 PM,84.2,75.2,74,29.92,6.2,East,5.8,-,N/A,,Partly Cloudy,100,2013-09-14 23:00:00
8:00 PM,84,75,67,29.95,31,East,5.8,,,,,90,2013-09-15 00:00:00
8:00 PM,84.2,75.2,74,29.95,6.2,East,5.8,-,N/A,,Partly Cloudy,90,2013-09-15 00:00:00
9:00 PM,84.2,75.2,74,29.95,6.2,East,5.8,-,N/A,,Partly Cloudy,90,2013-09-15 01:00:00
10:00 PM,84.2,77.0,79,29.95,6.2,East,4.6,-,N/A,,Scattered Clouds,80,2013-09-15 02:00:00
11:00 PM,83,75,72,29.97,22,East,4.6,,,,Scattered Clouds,100,2013-09-15 03:00:00
11:00 PM,84.2,75.2,74,29.95,6.2,East,4.6,-,N/A,,Partly Cloudy,100,2013-09-15 03:00:00